TimePDT,TemperatureF,Dew PointF,Humidity,Sea Level PressureIn,VisibilityMPH,Wind Direction,Wind SpeedMPH,Gust SpeedMPH,PrecipitationIn,Events,Conditions,WindDirDegrees,DateUTC
12:53 AM,33.1,15.1,48,30.02,10.0,South,8.1,-,N/A,,Clear,190,2012-10-08 07:53:00
1:53 AM,34.0,16.0,48,30.00,10.0,South,5.8,-,N/A,,Clear,170,2012-10-08 08:53:00
2:53 AM,35.1,16.0,46,29.96,10.0,South,6.9,-,N/A,,Clear,170,2012-10-08 09:53:00
3:53 AM,37.0,16.0,42,29.94,10.0,South,8.1,-,N/A,,Clear,180,2012-10-08 10:53:00
4:53 AM,37.0,17.1,44,29.95,10.0,South,9.2,-,N/A,,Clear,190,2012-10-08 11:53:00
5:53 AM,36.0,18.0,48,29.97,10.0,SSE,10.4,-,N/A,,Clear,160,2012-10-08 12:53:00
6:53 AM,36.0,18.0,48,30.01,10.0,South,9.2,-,N/A,,Clear,190,2012-10-08 13:53:00
7:53 AM,39.9,19.0,43,30.04,10.0,South,9.2,-,N/A,,Clear,180,2012-10-08 14:53:00
8:53 AM,53.1,21.0,29,29.99,10.0,South,6.9,-,N/A,,Clear,190,2012-10-08 15:53:00
9:53 AM,62.1,21.0,21,29.94,10.0,South,9.2,-,N/A,,Clear,180,2012-10-08 16:53:00
10:53 AM,64.9,21.9,19,29.92,10.0,Calm,Calm,-,N/A,,Clear,0,2012-10-08 17:53:00
11:53 AM,66.9,21.9,18,29.92,10.0,South,6.9,-,N/A,,Clear,170,2012-10-08 18:53:00
12:53 PM,69.1,18.0,14,29.89,10.0,South,10.4,19.6,N/A,,Clear,190,2012-10-08 19:53:00
1:53 PM,70.0,15.1,12,29.87,10.0,WSW,13.8,21.9,N/A,,Clear,240,2012-10-08 20:53:00
2:53 PM,69.1,21.0,16,29.87,10.0,SSW,15.0,23.0,N/A,,Clear,210,2012-10-08 21:53:00
3:53 PM,68.0,19.9,16,29.85,10.0,SSW,9.2,18.4,N/A,,Clear,210,2012-10-08 22:53:00
4:53 PM,68.0,21.0,17,29.85,10.0,South,13.8,23.0,N/A,,Clear,190,2012-10-08 23:53:00
5:53 PM,61.0,18.0,19,29.88,10.0,SSW,5.8,-,N/A,,Clear,210,2012-10-09 00:53:00
6:53 PM,50.0,21.2,32,30.04,10.0,South,8.1,-,N/A,,Clear,190,2012-10-09 01:53:00
7:53 PM,48.9,19.9,32,29.93,10.0,South,11.5,-,N/A,,Clear,170,2012-10-09 02:53:00
8:53 PM,48.0,21.9,36,29.88,10.0,South,11.5,-,N/A,,Clear,170,2012-10-09 03:53:00
9:53 PM,46.0,21.9,39,29.87,10.0,South,10.4,-,N/A,,Clear,190,2012-10-09 04:53:00
10:53 PM,48.9,21.9,35,29.85,10.0,SSW,10.4,-,N/A,,Clear,210,2012-10-09 05:53:00
11:53 PM,48.9,21.9,35,29.85,10.0,SSW,13.8,-,N/A,,Clear,200,2012-10-09 06:53:00